1496170801.23,58947,21.63,74226.0,5.01,4.79,4.79,0,*7E
1496170802.48,58948,21.63,74228.8,5.01,4.67,4.59,0,*7C
1496170803.73,58949,21.69,74226.0,5.01,4.67,4.71,0,*77
1496170804.99,58950,21.63,74228.5,5.01,4.71,4.67,0,*7F
1496170806.25,58951,21.69,74226.8,5.01,4.31,4.31,0,*79
1496170807.5,58952,21.63,74222.5,5.01,4.67,4.59,0,*77
1496170808.73,58953,21.63,74220.8,5.01,4.81,4.79,0,*7C
1496170809.98,58954,21.63,74224.5,5.01,4.79,4.79,0,*7C
1496170811.24,58955,21.63,74228.0,5.01,4.79,4.79,0,*7D
1496170812.47,58956,21.69,74228.5,5.03,4.79,4.67,0,*73
1496170813.73,58957,21.69,74232.5,5.01,4.71,4.67,0,*78
1496170814.96,58958,21.69,74228.5,5.01,4.81,4.71,0,*7F
1496170816.18,58959,21.69,74234.5,5.01,4.81,4.79,0,*76
1496170817.42,58960,21.63,74232.8,5.03,4.79,4.79,0,*79
1496170818.64,58961,21.69,74230.3,5.01,4.81,4.79,0,*7D
1496170819.9,58962,21.63,74228.0,5.01,4.79,4.71,0,*71
1496170821.14,58963,21.63,74234.3,5.03,4.71,4.71,0,*7A
1496170822.37,58964,21.69,74238.0,4.99,4.67,4.63,0,*7B
1496170823.63,58965,21.63,74234.8,5.01,4.67,4.67,0,*7E
1496170824.88,58966,21.69,74244.3,5.01,4.67,4.67,0,*7D
1496170826.14,58967,21.63,74240.0,5.01,4.71,4.67,0,*7B
1496170827.38,58968,21.69,74236.5,5.03,4.67,4.71,0,*76
1496170828.64,58969,21.69,74234.3,5.01,4.71,4.71,0,*72
1496170829.87,58970,21.69,74218.3,5.01,4.81,4.79,0,*7D
1496170831.07,58971,21.69,74214.3,5.03,4.81,4.93,0,*7A
1496170832.27,58972,21.63,74204.3,5.01,4.81,4.81,0,*78
1496170833.49,58973,21.63,74204.3,5.01,4.79,4.81,0,*7E
1496170834.73,58974,21.63,74198.8,5.03,4.71,4.79,0,*74
1496170835.96,58975,21.63,74208.3,5.01,4.81,4.79,0,*78
1496170837.19,58976,21.63,74208.5,5.03,4.79,4.79,0,*7E
1496170838.44,58977,21.63,74214.8,5.01,4.79,4.67,0,*72
1496170839.68,58978,21.63,74222.3,5.07,4.75,4.75,0,*74
1496170840.93,58979,21.63,74222.5,5.01,4.67,4.67,0,*73
1496170842.19,58980,21.63,74230.3,5.01,4.67,4.71,0,*72
1496170843.45,58981,21.63,74234.8,5.01,4.71,4.71,0,*74
1496170844.66,58982,21.63,74232.5,5.07,4.81,4.75,0,*7A
1496170845.83,58983,21.63,74238.8,5.03,4.81,4.81,0,*74
1496170847.06,58984,21.63,74238.3,5.01,4.79,4.81,0,*76
1496170848.31,58985,21.63,74240.5,5.01,4.79,4.79,0,*70
1496170849.54,58986,21.69,74240.5,5.03,4.79,4.71,0,*79
1496170850.77,58987,21.69,74238.5,5.01,4.81,4.79,0,*75
1496170851.99,58988,21.63,74234.5,5.01,4.79,4.81,0,*7A
1496170853.23,58989,21.63,74234.0,5.03,4.67,4.71,0,*79
1496170854.49,58990,21.63,74240.3,5.01,4.71,4.67,0,*73
1496170855.74,58991,21.63,74236.5,5.01,4.67,4.59,0,*78
1496170857.0,58992,21.63,74240.3,5.01,4.71,4.71,0,*76
1496170858.23,58993,21.63,74242.0,5.03,4.67,4.67,0,*75
1496170859.5,58994,21.63,74238.3,5.01,4.71,4.71,0,*70
1496170860.76,58995,21.63,74234.0,5.01,4.71,4.79,0,*79
1496170862.0,58996,21.63,74240.3,5.03,4.71,4.79,0,*78
1496170863.26,58997,21.63,74238.3,5.01,4.71,4.79,0,*7B
1496170864.49,58998,21.69,74242.3,5.03,4.71,4.79,0,*76
1496170865.72,58999,21.69,74242.3,5.03,4.79,4.79,0,*7F
1496170866.96,59000,21.63,74234.8,5.03,4.71,4.67,0,*70
1496170868.2,59001,21.63,74236.3,5.03,4.71,4.71,0,*76
1496170869.47,59002,21.63,74236.0,5.01,4.71,4.71,0,*77
1496170870.71,59003,21.69,74236.3,5.03,4.71,4.71,0,*74
1496170871.94,59004,21.63,74232.5,4.99,3.45,3.45,0,*71
1496170873.14,59005,21.63,74232.5,4.97,4.23,4.23,0,*7E
1496170874.34,59006,21.63,74232.0,4.97,4.49,4.53,0,*76
1496170875.59,59007,21.63,74236.3,4.97,4.59,4.59,0,*7C
1496170876.86,59008,21.69,74236.5,4.97,4.71,4.63,0,*70
1496170878.09,59009,21.63,74244.3,4.99,4.75,4.75,0,*7C
1496170879.33,59010,21.63,74238.3,4.99,4.75,4.75,0,*74
1496170880.56,59011,21.63,74226.0,4.99,4.79,4.79,0,*75
1496170881.8,59012,21.63,74228.5,4.99,4.75,4.75,0,*76
1496170883.04,59013,21.63,74230.0,4.99,4.67,4.75,0,*74
1496170884.28,59014,21.63,74230.5,4.97,2.73,2.85,0,*77
1496170885.51,59015,21.63,74228.3,4.93,1.13,1.41,0,*7C
1496170886.72,59016,21.63,74230.5,4.87,2.95,2.95,0,*7D
1496170887.93,59017,21.63,74222.0,4.87,3.89,3.93,0,*77
1496170889.13,59018,21.63,74214.0,4.87,4.27,4.15,0,*72
1496170890.37,59019,21.63,74224.3,4.87,4.31,4.37,0,*74
1496170891.54,59020,21.63,74228.0,4.89,4.45,4.53,0,*71
1496170892.71,59021,21.63,74216.5,4.89,4.41,4.45,0,*73
1496170893.89,59022,21.63,74212.0,4.89,4.41,4.41,0,*74
1496170895.06,59023,21.63,74208.3,4.89,3.59,3.59,0,*75
1496170896.26,59024,21.63,74212.3,4.91,4.27,4.27,0,*7B
1496170897.43,59025,21.63,74222.8,4.89,4.45,4.33,0,*72
1496170898.6,59026,21.63,74224.3,4.89,4.45,4.45,0,*70
1496170899.77,59027,21.63,74224.3,4.89,4.45,4.45,0,*71
1496170900.98,59028,21.63,74226.5,4.89,4.31,4.33,0,*7C
1496170902.17,59029,21.63,74226.0,4.91,4.49,4.49,0,*76
1496170903.34,59030,21.63,74226.3,4.89,4.45,4.45,0,*77
1496170904.51,59031,21.63,74222.3,4.89,4.45,4.53,0,*71
1496170905.69,59032,21.63,74222.5,4.89,4.53,4.57,0,*71
1496170906.87,59033,21.63,74222.5,4.89,4.53,4.53,0,*74
1496170908.04,59034,21.63,74222.8,4.89,4.57,4.53,0,*77
1496170909.26,59035,21.63,74216.8,4.89,3.41,3.53,0,*71
1496170910.47,59036,21.63,74220.0,4.87,4.15,4.15,0,*7F
1496170911.64,59037,21.69,74226.8,4.85,4.27,4.27,0,*7C
1496170912.82,59038,21.63,74232.3,4.85,4.27,4.27,0,*73
1496170914.08,59039,21.63,74236.5,4.87,4.31,4.31,0,*70
1496170915.34,59040,21.63,74236.3,4.87,4.31,4.31,0,*7E
1496170916.57,59041,21.63,74232.8,4.87,4.27,4.31,0,*78
1496170917.8,59042,21.63,74228.5,4.87,4.27,4.31,0,*7B
1496170918.99,59043,21.63,74230.5,4.85,4.37,4.37,0,*7F
1496170920.2,59044,21.63,74234.8,4.87,4.37,4.37,0,*7A
1496170921.45,59045,21.63,74240.0,4.87,3.49,3.49,0,*7B
1496170922.7,59046,21.63,74238.5,4.87,4.01,4.01,0,*78
1496170923.9,59047,21.63,74234.3,4.85,2.95,2.73,0,*73
1496170925.1,59048,21.63,74232.5,4.79,3.63,3.55,0,*72
1496170926.32,59049,21.63,74234.8,4.81,3.97,4.01,0,*79
1496170927.55,59050,21.63,74236.8,4.79,4.07,4.01,0,*78
1496170928.79,59051,21.63,74238.8,4.75,0.71,0.83,0,*7E
1496170930.02,59052,21.63,74232.3,4.73,3.37,3.45,0,*73
1496170931.21,59053,21.63,74228.5,4.73,3.89,3.81,0,*7F
1496170932.43,59054,21.63,74228.0,4.73,4.01,4.01,0,*70
1496170933.65,59055,21.69,74228.5,4.73,4.01,4.05,0,*75
1496170934.86,59056,21.63,74224.0,4.73,4.07,4.05,0,*70
1496170936.09,59057,21.63,74226.5,4.73,4.05,4.05,0,*73
1496170937.27,59058,21.63,74230.5,4.73,4.07,4.07,0,*7C
1496170938.5,59059,21.63,74238.3,4.73,4.05,4.05,0,*7D
1496170939.71,59060,21.63,74238.0,4.73,2.51,2.61,0,*74
1496170940.95,59061,21.63,74238.3,4.69,1.37,1.63,0,*7C
1496170942.15,59062,21.63,74238.3,4.67,3.25,3.29,0,*7C
1496170943.35,59063,21.63,74236.0,4.67,3.63,3.63,0,*71
1496170944.61,59064,21.63,74240.8,4.67,3.71,3.71,0,*76
1496170945.79,59065,21.63,74240.8,4.65,4.07,4.07,0,*75
1496170946.99,59066,21.63,74234.8,4.63,4.07,4.15,0,*73
1496170948.17,59067,21.63,74228.3,4.65,4.07,4.15,0,*74
1496170949.34,59068,21.63,74226.5,4.65,4.15,4.15,0,*78
1496170950.54,59069,21.63,74230.5,4.67,4.19,4.19,0,*7B
1496170951.74,59070,21.63,74228.3,4.67,4.19,4.19,0,*73
1496170952.94,59071,21.63,74236.8,4.67,4.19,4.19,0,*72
1496170954.11,59072,21.63,74236.5,4.69,4.27,4.27,0,*7F
1496170955.32,59073,21.63,74236.0,4.67,4.23,4.23,0,*70
1496170956.49,59074,21.63,74236.8,4.69,4.23,4.27,0,*7D
1496170957.69,59075,21.63,74236.3,4.69,4.33,4.31,0,*7A
1496170958.88,59076,21.63,74230.8,4.69,4.27,4.33,0,*7E
1496170960.05,59077,21.63,74230.3,4.69,4.27,4.27,0,*7A
1496170961.23,59078,21.63,74228.0,4.69,4.27,4.27,0,*75
1496170962.4,59079,21.63,74230.3,4.69,4.27,4.27,0,*74
1496170963.58,59080,21.63,74230.3,4.69,4.27,4.33,0,*77
1496170964.76,59081,21.63,74234.5,4.73,4.41,4.37,0,*79
1496170965.95,59082,21.63,74230.5,4.73,4.37,4.41,0,*7A
1496170967.14,59083,21.63,74232.8,4.73,4.37,4.37,0,*7A
1496170968.31,59084,21.63,74234.8,4.73,4.49,4.41,0,*75
1496170969.48,59085,21.63,74238.8,4.73,4.49,4.49,0,*7C
1496170970.66,59086,21.63,74238.0,4.73,4.53,4.53,0,*7F
1496170971.89,59087,21.63,74232.3,4.73,4.59,4.59,0,*7E
1496170973.09,59088,21.63,74232.8,4.73,4.53,4.59,0,*7B
1496170974.3,59089,21.63,74242.8,4.75,4.53,4.53,0,*76
1496170975.5,59090,21.63,74244.3,4.75,4.53,4.53,0,*7E
1496170976.7,59091,21.63,74238.5,4.75,4.49,4.53,0,*74
1496170977.88,59092,21.63,74232.0,4.77,4.57,4.57,0,*7E
1496170979.09,59093,21.63,74230.5,4.75,4.53,4.53,0,*7D
1496170980.34,59094,21.63,74240.0,4.75,4.59,4.59,0,*7A
1496170981.55,59095,21.63,74244.8,4.75,4.53,4.53,0,*7B
1496170982.75,59096,21.63,74244.5,4.75,4.49,4.57,0,*77
1496170983.95,59097,21.63,74242.5,4.75,4.49,4.53,0,*72
1496170985.16,59098,21.63,74240.0,4.77,4.67,4.57,0,*77
1496170986.41,59099,21.63,74242.8,4.79,4.67,4.59,0,*76
1496170987.62,59100,21.63,74246.0,4.77,4.63,4.57,0,*73
1496170988.8,59101,21.63,74248.3,4.77,4.53,4.57,0,*71
1496170990.01,59102,21.63,74254.3,4.79,4.57,4.57,0,*78
1496170991.24,59103,21.63,74256.0,4.79,4.45,4.59,0,*74
1496170992.43,59104,21.63,74246.8,4.81,4.49,4.59,0,*78
1496170993.63,59105,21.63,74234.0,4.79,4.49,4.57,0,*70
1496170994.84,59106,21.63,74218.3,4.81,4.59,4.57,0,*75
1496170996.08,59107,21.63,74234.0,4.79,4.59,4.57,0,*73
1496170997.33,59108,21.63,74260.5,4.79,4.59,4.59,0,*72
1496170998.56,59109,21.63,74244.0,4.81,4.59,4.67,0,*79
1496170999.83,59110,21.63,74240.0,4.79,4.71,4.67,0,*7C
1496171001.08,59111,21.63,74246.0,4.79,4.67,4.67,0,*7A
1496171002.34,59112,21.63,74244.8,4.79,4.67,4.67,0,*79
1496171003.57,59113,21.63,74246.0,4.81,4.67,4.67,0,*7F
1496171004.75,59114,21.63,74244.5,4.81,4.57,4.57,0,*78
1496171005.98,59115,21.63,74248.8,4.79,4.59,4.57,0,*70
1496171007.15,59116,21.63,74246.0,4.81,4.57,4.49,0,*75
1496171008.33,59117,21.63,74250.5,4.81,4.57,4.57,0,*7B
1496171009.56,59118,21.63,74242.5,4.81,4.59,4.59,0,*74
1496171010.77,59119,21.63,74240.8,4.81,4.59,4.57,0,*7B
1496171012.03,59120,21.63,74234.8,4.79,4.59,4.59,0,*78
1496171013.25,59121,21.63,74226.0,4.85,4.63,4.59,0,*73
1496171014.48,59122,21.63,74224.3,4.85,4.63,4.63,0,*79
1496171015.68,59123,21.63,74236.8,4.85,4.53,4.59,0,*72
1496171016.88,59124,21.63,74242.3,4.85,4.53,4.59,0,*75
1496171018.09,59125,21.63,74242.8,4.85,2.95,2.89,0,*73
1496171019.26,59126,21.63,74246.0,4.81,4.23,4.15,0,*7C
1496171020.48,59127,21.63,74250.3,4.79,4.37,4.33,0,*7B
1496171021.65,59128,21.63,74250.3,4.81,4.45,4.45,0,*77
1496171022.86,59129,21.63,74252.0,4.79,4.37,4.45,0,*74
1496171024.04,59130,21.63,74250.0,4.81,4.33,4.37,0,*7A
1496171025.22,59131,21.63,74244.3,4.85,4.41,4.41,0,*7B
1496171026.4,59132,21.63,74244.5,4.85,4.41,4.41,0,*78
1496171027.6,59133,21.63,74246.3,4.87,4.41,4.49,0,*73
1496171028.77,59134,21.63,74246.3,4.85,4.41,4.49,0,*76
1496171029.96,59135,21.63,74246.8,4.85,4.37,4.37,0,*7F
1496171031.15,59136,21.63,74252.3,4.85,4.37,4.41,0,*7D
1496171032.33,59137,21.63,74250.0,4.85,4.41,4.41,0,*7D
1496171033.53,59138,21.63,74252.3,4.87,4.41,4.53,0,*73
1496171034.73,59139,21.63,74252.8,4.87,4.49,4.53,0,*7A
1496171035.93,59140,21.63,74252.3,4.87,4.49,4.53,0,*74
1496171037.16,59141,21.63,74250.5,4.85,3.07,3.11,0,*7B
1496171038.35,59142,21.63,74254.5,4.85,4.37,4.37,0,*7F
1496171039.53,59143,21.63,74254.3,4.85,4.53,4.53,0,*7E
1496171040.73,59144,21.63,74254.3,4.85,4.53,4.59,0,*73
1496171041.93,59145,21.63,74256.0,4.85,4.53,4.59,0,*72
1496171043.13,59146,21.63,74254.5,4.85,2.47,1.41,0,*7E
1496171044.36,59147,21.63,74254.0,4.85,3.67,3.67,0,*7A
1496171045.56,59148,21.63,74252.0,4.85,4.31,4.41,0,*72
1496171046.77,59149,21.63,74256.8,4.87,4.53,4.53,0,*76
1496171047.97,59150,21.63,74254.5,4.85,4.53,4.59,0,*76
1496171049.23,59151,21.63,74254.8,4.87,4.59,4.59,0,*7F
1496171050.43,59152,21.63,74256.0,4.85,4.53,4.59,0,*74
1496171051.62,59153,21.63,74256.8,4.85,3.49,3.55,0,*72
1496171052.8,59154,21.63,74258.0,4.81,4.23,4.23,0,*7C
1496171054.03,59155,21.63,74254.0,4.81,4.59,4.67,0,*70
1496171055.26,59156,21.63,74252.8,4.81,4.59,4.67,0,*73
1496171056.46,59157,21.63,74252.8,4.81,4.57,4.59,0,*71
1496171057.72,59158,21.63,74252.5,4.87,4.59,4.59,0,*76
1496171058.95,59159,21.63,74256.8,4.85,4.59,4.59,0,*75
1496171060.17,59160,21.63,74258.8,4.85,4.63,4.59,0,*76
1496171061.43,59161,21.63,74254.5,4.87,4.63,4.63,0,*7C
1496171062.66,59162,21.63,74256.0,4.85,4.63,4.63,0,*7D
1496171063.89,59163,21.63,74258.0,4.85,4.75,4.75,0,*7C
1496171065.16,59164,21.63,74262.8,4.87,4.71,4.75,0,*7D
1496171066.39,59165,21.63,74258.0,4.85,4.75,4.63,0,*7D
1496171067.64,59166,21.63,74256.0,4.87,4.63,4.59,0,*72
1496171068.89,59167,21.63,74254.8,4.87,4.63,4.63,0,*7A
1496171070.15,59168,21.63,74254.0,4.87,4.59,4.59,0,*75
1496171071.41,59169,21.63,74252.8,4.87,4.75,4.75,0,*74
1496171072.67,59170,21.63,74254.3,4.87,4.63,4.63,0,*7C
1496171073.92,59171,21.63,74252.0,4.87,4.59,4.59,0,*7D
1496171075.12,59172,21.63,74252.3,4.89,4.93,4.89,0,*7B
1496171076.32,59173,21.63,74254.3,4.89,4.79,4.85,0,*72
1496171077.54,59174,21.63,74254.5,4.89,4.67,4.67,0,*76
1496171078.77,59175,21.63,74254.8,4.89,4.67,4.67,0,*77
1496171079.99,59176,21.63,74252.3,4.89,4.63,4.67,0,*70
1496171081.22,59177,21.63,74252.8,4.89,4.79,4.75,0,*79
1496171082.45,59178,21.63,74254.0,4.89,4.75,4.75,0,*7A
1496171083.68,59179,21.63,74252.0,4.89,4.75,4.67,0,*78
1496171084.93,59180,21.63,74254.5,4.91,4.79,4.79,0,*74
1496171086.16,59181,21.63,74254.5,4.89,4.75,4.75,0,*7C
1496171087.39,59182,21.63,74250.3,4.89,4.75,4.79,0,*73
1496171088.64,59183,21.63,74248.0,4.91,4.71,4.67,0,*70
1496171089.91,59184,21.63,74252.8,4.91,4.71,4.71,0,*70
1496171091.13,59185,21.63,74252.5,4.89,4.67,4.67,0,*78
1496171092.39,59186,21.63,74252.3,4.91,4.71,4.63,0,*71
1496171093.62,59187,21.63,74254.5,4.89,4.67,4.63,0,*7E
1496171094.88,59188,21.63,74248.8,4.93,4.67,4.71,0,*79
1496171096.08,59189,21.63,74250.8,4.91,4.49,4.37,0,*74
1496171097.28,59190,21.63,74250.5,4.93,4.49,4.49,0,*77
1496171098.53,59191,21.63,74248.8,4.91,4.59,4.59,0,*74
1496171099.79,59192,21.63,74248.0,4.91,4.67,4.67,0,*77
1496171101.05,59193,21.63,74248.3,4.93,4.67,4.67,0,*74
1496171102.31,59194,21.63,74254.3,4.93,4.67,4.67,0,*73
1496171103.57,59195,21.63,74254.8,4.93,4.71,4.79,0,*7A
1496171104.81,59196,21.63,74250.5,4.93,4.71,4.81,0,*7E
1496171106.06,59197,21.63,74254.0,4.91,4.67,4.71,0,*75
1496171107.33,59198,21.63,74252.5,4.93,4.71,4.71,0,*7F
1496171108.6,59199,21.63,74248.0,4.93,4.71,4.67,0,*79
1496171109.85,59200,21.63,74248.8,4.91,4.67,4.67,0,*7F
1496171111.12,59201,21.63,74250.5,4.93,4.67,4.71,0,*7B
1496171112.38,59202,21.63,74248.0,4.93,4.67,4.71,0,*78
1496171113.65,59203,21.63,74244.5,4.91,4.71,4.71,0,*7C
1496171114.91,59204,21.63,74246.3,4.91,4.71,4.71,0,*7B
1496171116.18,59205,21.63,74248.0,4.93,4.71,4.71,0,*78
1496171117.45,59206,21.63,74248.0,4.93,4.71,4.71,0,*7B
1496171118.72,59207,21.63,74248.3,4.93,4.71,4.71,0,*7A
1496171119.99,59208,21.63,74242.0,4.93,4.71,4.67,0,*72
1496171121.26,59209,21.63,74246.3,4.93,4.71,4.71,0,*74
1496171122.5,59210,21.63,74246.8,4.95,4.67,4.71,0,*7D
1496171123.67,59211,21.63,74244.5,4.95,4.81,4.81,0,*7B
1496171124.93,59212,21.63,74242.5,4.93,4.79,4.79,0,*7E
1496171126.16,59213,21.63,74242.5,4.93,4.79,4.81,0,*78
1496171127.36,59214,21.63,74240.0,4.93,4.81,4.81,0,*78
1496171128.54,59215,21.63,74230.5,4.95,4.85,4.81,0,*7B
1496171129.72,59216,21.63,74228.8,4.95,4.81,4.81,0,*7C
1496171130.95,59217,21.63,74230.5,4.93,4.79,4.81,0,*7C
1496171132.15,59218,21.63,74232.0,4.93,4.81,4.81,0,*74
1496171133.33,59219,21.63,74242.5,4.95,4.85,4.85,0,*73
1496171134.54,59220,21.63,74242.5,4.93,4.81,4.81,0,*7F
1496171135.78,59221,21.63,74232.3,4.95,4.93,4.93,0,*78
1496171137.02,59222,21.63,74230.3,4.93,4.89,4.97,0,*72
1496171138.25,59223,21.63,74222.3,4.95,4.93,4.93,0,*7A
1496171139.44,59224,21.63,74234.8,4.95,4.85,4.85,0,*7D
1496171140.65,59225,21.63,74238.0,4.95,4.85,4.93,0,*7B
1496171141.83,59226,21.63,74228.3,4.95,4.85,4.85,0,*7F
1496171143.01,59227,21.63,74220.3,4.95,4.85,4.85,0,*7E
1496171144.19,59228,21.63,74226.5,4.95,4.85,4.85,0,*71
1496171145.37,59229,21.63,74232.5,4.95,4.85,4.85,0,*70
1496171146.56,59230,21.63,74234.3,4.95,4.85,4.85,0,*78
1496171147.79,59231,21.63,74228.3,4.97,4.93,4.85,0,*7C
1496171149.02,59232,21.63,74220.5,4.97,4.93,4.85,0,*7F
1496171150.2,59233,21.63,74220.3,4.95,4.85,4.85,0,*7B
1496171151.4,59234,21.63,74226.3,4.97,4.85,4.81,0,*7A
1496171152.57,59235,21.63,74236.8,4.95,4.81,4.81,0,*7D
1496171153.78,59236,21.63,74234.8,4.97,4.85,4.85,0,*7C
1496171154.98,59237,21.63,74236.3,4.97,4.85,4.85,0,*7D
1496171156.18,59238,21.63,74222.8,4.97,4.85,4.85,0,*72
1496171157.41,59239,21.63,74222.0,4.97,4.93,4.85,0,*74
1496171158.59,59240,21.63,74222.8,4.99,4.89,4.89,0,*73
1496171159.79,59241,21.63,74214.8,4.97,4.85,4.85,0,*7C
1496171160.99,59242,21.63,74206.5,4.97,4.85,4.85,0,*7F
1496171162.19,59243,21.63,74242.0,4.97,4.85,4.85,0,*7E
1496171163.37,59244,21.63,74234.8,4.99,4.89,4.89,0,*77
1496171164.58,59245,21.63,74226.5,4.99,4.97,4.89,0,*79
1496171165.81,59246,21.63,74232.3,4.97,4.93,4.85,0,*7C
1496171167.01,59247,21.63,74226.8,4.97,4.85,4.85,0,*7A
1496171168.22,59248,21.63,74220.0,4.99,4.97,4.89,0,*74
1496171169.4,59249,21.63,74220.5,4.99,5.15,5.15,0,*7A
1496171170.64,59250,21.63,74222.8,4.99,4.97,4.97,0,*72
1496171171.82,59251,21.63,74214.8,4.99,4.85,4.85,0,*73
1496171173.05,59252,21.63,74224.3,4.99,5.05,5.05,0,*70
1496171174.32,59253,21.63,74214.5,5.01,5.01,5.01,0,*71
1496171175.58,59254,21.63,74224.5,5.01,5.01,5.01,0,*76
1496171176.81,59255,21.63,74226.0,5.01,4.89,4.93,0,*7C
1496171178.04,59256,21.63,74230.3,5.01,4.93,4.89,0,*7F
1496171179.3,59257,21.63,74230.0,5.01,5.01,4.93,0,*7F
1496171180.53,59258,21.63,74232.3,5.03,5.01,4.93,0,*72
1496171181.79,59259,21.63,74228.8,5.01,4.93,4.93,0,*7B
1496171183.05,59260,21.63,74234.8,5.01,4.93,4.93,0,*71
1496171184.31,59261,21.63,74236.5,5.01,4.93,4.93,0,*70
1496171185.57,59262,21.63,74234.3,5.01,4.93,5.01,0,*79
1496171186.83,59263,21.56,74234.0,5.01,5.01,5.01,0,*72
1496171188.07,59264,21.63,74234.8,5.03,4.93,5.01,0,*7D
1496171189.33,59265,21.63,74238.0,5.01,5.01,5.01,0,*74
1496171190.54,59266,21.63,74246.0,5.03,4.93,4.89,0,*7E
1496171191.8,59267,21.63,74240.3,5.01,4.93,4.93,0,*76
1496171193.03,59268,21.63,74246.3,5.03,4.93,4.93,0,*7B
1496171194.24,59269,21.63,74240.5,5.03,5.07,5.05,0,*78
1496171195.47,59270,21.63,74244.0,5.03,5.01,5.01,0,*72
1496171196.71,59271,21.63,74240.5,5.03,5.01,5.01,0,*73
1496171197.93,59272,21.63,74248.8,5.03,4.89,5.01,0,*71
1496171199.16,59273,21.63,74248.5,5.03,4.93,4.93,0,*71
1496171200.4,59274,21.63,74244.5,5.03,4.93,4.93,0,*76
1496171201.63,59275,21.63,74248.8,5.03,4.93,4.93,0,*77
1496171202.84,59276,21.63,74248.8,5.03,4.89,4.93,0,*7F
1496171204.05,59277,21.63,74244.8,5.03,4.93,4.89,0,*7E
1496171205.28,59278,21.63,74248.8,5.03,4.93,4.93,0,*7A
1496171206.52,59279,21.63,74248.3,5.07,4.93,4.93,0,*7F
1496171207.75,59280,21.63,74244.8,5.07,4.93,4.93,0,*79
1496171208.99,59281,21.63,74242.8,5.07,4.97,4.97,0,*78
1496171210.24,59282,21.63,74246.5,5.09,4.97,4.97,0,*75
1496171211.48,59283,21.63,74246.8,5.07,4.97,4.97,0,*7A
1496171212.74,59284,21.63,74242.3,5.09,4.97,4.93,0,*77
1496171213.97,59285,21.63,74244.3,5.07,4.97,4.93,0,*78
1496171215.2,59286,21.63,74248.8,5.07,4.97,4.97,0,*7F
1496171216.46,59287,21.63,74246.5,5.09,4.93,4.97,0,*74
1496171217.72,59288,21.63,74244.5,5.09,4.93,4.93,0,*7F
1496171218.95,59289,21.63,74244.0,5.07,4.93,4.97,0,*74
1496171220.21,59290,21.63,74246.8,5.09,4.93,4.93,0,*76
1496171221.41,59291,21.56,74244.8,5.09,4.85,4.85,0,*77
1496171222.59,59292,21.63,74252.3,5.07,4.85,4.85,0,*7A
1496171223.83,59293,21.63,74252.3,5.07,4.93,4.97,0,*7F
1496171225.08,59294,21.63,74246.3,5.09,4.97,4.97,0,*72
1496171226.34,59295,21.63,74242.5,5.09,4.97,4.93,0,*77
1496171227.6,59296,21.63,74244.0,5.09,4.97,4.93,0,*74
1496171228.86,59297,21.63,74248.8,5.09,4.93,4.93,0,*71
1496171230.12,59298,21.63,74246.5,5.09,4.93,4.93,0,*7E
1496171231.37,59299,21.63,74246.8,5.09,4.97,4.97,0,*7F
1496171232.63,59300,21.56,74248.0,5.09,4.93,4.97,0,*7A
1496171233.89,59301,21.63,74246.0,5.09,4.97,4.97,0,*7F
1496171235.15,59302,21.56,74242.0,5.09,4.97,4.97,0,*7C
1496171236.41,59303,21.56,74242.8,5.09,4.93,4.93,0,*7D
1496171237.66,59304,21.56,74242.5,5.09,4.93,4.97,0,*7E
1496171238.92,59305,21.63,74246.8,5.09,4.93,4.93,0,*7B
1496171240.18,59306,21.63,74248.3,5.09,4.93,4.93,0,*78
1496171241.42,59307,21.63,74244.8,5.11,5.01,5.01,0,*70
1496171242.65,59308,21.63,74240.8,5.11,5.01,5.05,0,*7B
1496171243.91,59309,21.63,74242.8,5.13,5.01,5.01,0,*7C
1496171245.14,59310,21.63,74246.3,5.11,4.97,4.97,0,*76
1496171246.37,59311,21.63,74246.0,5.11,5.05,5.01,0,*73
1496171247.61,59312,21.63,74246.5,5.11,4.97,5.01,0,*7A
1496171248.84,59313,21.56,74244.8,5.13,5.11,5.05,0,*72
1496171250.06,59314,21.56,74240.0,5.13,5.11,5.05,0,*75
1496171251.27,59315,21.63,74246.5,5.13,5.19,5.11,0,*79
1496171252.47,59316,21.63,74246.5,5.11,5.07,5.01,0,*76
1496171253.73,59317,21.63,74246.5,5.13,5.05,5.05,0,*73
1496171254.93,59318,21.56,74238.5,5.13,5.11,5.11,0,*7C
1496171256.16,59319,21.63,74240.5,5.13,5.11,5.05,0,*78
1496171257.39,59320,21.56,74242.3,5.15,5.05,5.05,0,*71
1496171258.64,59321,21.56,74240.8,5.13,5.01,5.05,0,*72
1496171259.89,59322,21.63,74244.0,5.13,5.05,5.05,0,*75
1496171261.1,59323,21.56,74248.5,5.13,5.15,5.19,0,*78
1496171262.3,59324,21.63,74254.8,5.13,5.11,5.15,0,*77
1496171263.47,59325,21.56,74250.8,5.15,5.37,5.37,0,*74
1496171264.65,59326,21.63,74250.8,5.15,5.11,5.15,0,*73
1496171265.83,59327,21.56,74252.0,5.15,5.11,5.11,0,*76
1496171267.04,59328,21.63,74258.3,5.15,5.05,5.11,0,*7C
1496171268.25,59329,21.56,74252.0,5.15,5.05,5.11,0,*7D
1496171269.43,59330,21.56,74254.5,5.15,5.15,5.15,0,*70
1496171270.64,59331,21.56,74254.5,5.15,5.11,5.05,0,*74
1496171271.82,59332,21.63,74256.5,5.15,5.07,5.07,0,*72
1496171273.07,59333,21.63,74254.0,5.17,5.05,5.05,0,*71
1496171274.33,59334,21.56,74256.0,5.17,5.05,5.05,0,*76
1496171275.58,59335,21.63,74258.0,5.17,5.05,5.05,0,*77
1496171276.82,59336,21.56,74256.0,5.15,5.05,5.05,0,*76
1496171278.02,59337,21.56,74258.5,5.17,5.07,5.07,0,*75
1496171279.23,59338,21.56,74262.8,5.17,5.07,5.07,0,*7A
1496171280.43,59339,21.63,74266.3,5.17,5.15,5.15,0,*7B
1496171281.61,59340,21.56,74262.5,5.15,5.07,5.07,0,*77
1496171282.81,59341,21.63,74254.5,5.17,5.07,5.15,0,*77
1496171284.01,59342,21.63,74250.3,5.17,5.15,5.15,0,*77
1496171285.22,59343,21.56,74250.5,5.17,5.19,5.15,0,*7A
1496171286.42,59344,21.63,74250.3,5.17,5.15,5.15,0,*71
1496171287.63,59345,21.56,74250.8,5.17,5.19,5.15,0,*7C
1496171288.83,59346,21.63,74250.8,5.17,5.15,5.15,0,*73
1496171290.05,59347,21.56,74252.5,5.17,5.07,5.05,0,*70
1496171291.29,59348,21.56,74252.5,5.17,5.05,5.07,0,*7F
1496171292.52,59349,21.63,74256.0,5.21,5.01,5.07,0,*7F
1496171293.75,59350,21.56,74254.3,5.21,5.01,5.11,0,*70
1496171294.96,59351,21.56,74252.3,5.19,5.05,5.07,0,*79
1496171296.15,59352,21.63,74258.8,5.19,5.11,5.11,0,*78
1496171297.38,59353,21.56,74258.8,5.19,5.05,5.05,0,*79
1496171298.59,59354,21.63,74254.0,5.19,5.05,5.07,0,*7C
1496171299.77,59355,21.63,74252.3,5.19,5.07,5.07,0,*7F
1496171300.98,59356,21.56,74250.3,5.19,5.05,5.07,0,*7E
1496171302.21,59357,21.63,74258.0,5.19,5.05,5.05,0,*7D
1496171303.42,59358,21.63,74252.5,5.21,5.11,5.11,0,*79
1496171304.6,59359,21.63,74260.8,5.19,5.07,5.07,0,*73
1496171305.78,59360,21.63,74264.3,5.19,5.11,5.11,0,*79
1496171306.99,59361,21.56,74260.8,5.21,5.11,5.11,0,*73
1496171308.17,59362,21.63,74260.0,5.19,5.07,5.07,0,*7B
1496171309.37,59363,21.56,74256.0,5.19,5.07,5.05,0,*78
1496171310.58,59364,21.56,74256.8,5.21,5.11,5.11,0,*76
1496171311.78,59365,21.63,74258.5,5.21,5.11,5.11,0,*77
1496171312.98,59366,21.56,74252.5,5.21,5.07,5.11,0,*73
1496171314.21,59367,21.56,74252.5,5.21,5.01,5.07,0,*73
1496171315.42,59368,21.56,74248.8,5.21,5.07,5.07,0,*7A
1496171316.63,59369,21.56,74248.8,5.19,5.07,5.01,0,*76
1496171317.83,59370,21.56,74246.8,5.25,5.11,5.05,0,*72
1496171319.04,59371,21.56,74246.5,5.25,5.11,5.05,0,*73
1496171320.27,59372,21.63,74234.5,5.25,5.05,5.05,0,*75
1496171321.5,59373,21.63,74256.5,5.23,4.97,5.01,0,*7C
1496171322.76,59374,21.63,74258.5,5.21,5.01,4.97,0,*79
1496171323.94,59375,21.56,74256.5,5.25,5.11,5.15,0,*76
1496171325.12,59376,21.56,74250.0,5.23,5.07,5.11,0,*70
1496171326.32,59377,21.56,74254.3,5.21,5.07,5.11,0,*73
1496171327.53,59378,21.56,74270.3,5.23,5.11,5.01,0,*78
1496171328.7,59379,21.63,74270.3,5.23,5.07,5.07,0,*78
1496171329.88,59380,21.56,74240.5,5.23,5.07,5.11,0,*79
1496171331.06,59381,21.63,74242.8,5.25,5.15,5.15,0,*79
1496171332.24,59382,21.56,74256.5,5.23,5.11,5.07,0,*7B
1496171333.43,59383,21.56,74258.5,5.25,5.11,5.11,0,*7B